Location: Trois-Rivi�res
(46.3500°N, 72.5500°W)
Time: 03:39:12
(UTC-04:00)

Daily predictions for brighter satellites

Satellite Brightness Start Highest point End
(mag) Time Altitude Azimuth Time Altitude Azimuth Time Altitude Azimuth
Meteor 1-24 Rocket 4.4 00:02:33 10° N 00:07:53 46° ENE 00:07:53 46° ENE
H-2A R/B 4.1 00:10:18 21° WNW 00:10:18 21° WNW 00:12:41 10° NW
BREEZE-M DEB (TANK) 3.5 00:00:52 10° W 00:13:30 70° NNW 00:14:18 58° NE
Cosmos 2219 Rocket 3.1 00:14:24 40° W 00:15:23 44° NW 00:20:48 10° NNE
Meteor 2-13 Rocket 4.4 00:18:17 77° WNW 00:18:17 77° WNW 00:24:20 10° N
Cosmos 2327 Rocket 4.5 00:19:34 77° ENE 00:19:34 77° ENE 00:25:37 10° N
SL-16 R/B 3.0 00:21:37 42° ENE 00:21:37 42° ENE 00:25:35 10° NE
CZ-2C R/B 2.9 00:14:44 10° NNE 00:19:21 66° N 00:19:21 66° N
COSMOS 2428 4.4 00:17:01 18° W 00:20:14 28° NW 00:25:10 10° N
Terra 4.4 00:24:37 11° W 00:24:37 11° W 00:25:50 10° WNW
Cosmos 2333 Rocket 3.2 00:32:48 37° WNW 00:33:42 40° NW 00:39:00 10° NNE
CZ-2C R/B 4.4 00:41:31 29° WNW 00:41:31 29° WNW 00:44:28 10° NNW
Cosmos 1943 Rocket 4.2 00:43:02 10° N 00:47:13 21° NE 00:49:43 16° E
Mayak 0.6 00:50:08 10° N 00:52:18 30° N 00:52:18 30° N
NOSS 3-4 (A) 4.4 00:54:01 34° W 00:56:12 45° NW 01:02:31 10° NNE
NOSS 3-4 (C) 4.4 00:54:09 34° W 00:56:18 46° NW 01:02:38 10° NNE
Cosmos 2184 Rocket 4.4 00:56:51 53° WNW 00:56:51 53° WNW 01:02:53 10° N
Cosmos 2237 Rocket 3.2 00:57:08 36° WNW 00:57:43 37° NW 01:02:57 10° NNE
Cosmos 2369 Rocket 3.2 00:53:53 10° NNW 00:59:14 39° NE 00:59:57 37° ENE
CENTAUR R/B 3.2 00:57:01 10° NW 01:04:37 57° WSW 01:04:37 57° WSW
Nadezhda 3 Rocket 4.1 01:01:42 10° NNW 01:07:39 68° WNW 01:07:39 68° WNW
Cosmos 2341 Rocket 4.0 01:10:16 78° NE 01:10:16 78° NE 01:16:13 10° N
USA 215 3.2 01:13:10 70° W 01:13:10 70° W 01:19:05 10° NW
Lacrosse 5 4.0 01:19:02 10° WNW 01:23:12 25° N 01:27:22 10° NE
Cosmos 1295 Rocket 4.4 01:32:26 80° NW 01:32:26 80° NW 01:38:32 10° N
ADEOS Rocket 4.3 01:30:15 10° NE 01:34:43 25° E 01:34:48 25° E
ATLAS CENTAUR R/B 3.7 01:28:32 10° NW 01:35:02 38° WNW 01:35:02 38° WNW
H-2A R/B 4.4 01:33:34 10° NNE 01:35:19 24° NE 01:35:19 24° NE
Cosmos 2366 rocket 4.1 01:39:49 67° E 01:39:55 67° E 01:46:14 10° NNE
Cosmos 1727 Rocket 4.1 01:35:21 10° N 01:41:31 65° E 01:41:50 64° E
Cosmos 2208 Rocket 4.3 01:42:54 66° N 01:42:54 66° N 01:47:36 10° NNE
Cosmos 2263 4.5 01:38:51 10° NNW 01:44:25 60° ENE 01:44:36 59° ENE
COSMOS 2455 4.3 01:39:12 10° NW 01:42:17 25° WNW 01:42:17 25° WNW
Meteor 2-21 Rocket 4.4 01:44:38 75° E 01:44:38 75° E 01:50:49 10° NNE
Meteor 2-15 Rocket 4.3 01:43:21 10° N 01:49:23 86° NNW 01:49:23 86° NNW
Cosmos 1603 3.8 01:55:31 72° NNW 01:55:31 72° NNW 02:00:47 10° NNE
Meteor 2-16 Rocket 4.3 01:58:01 78° ESE 01:58:08 78° E 02:04:15 10° NNE
SL-16 R/B 3.6 02:03:29 27° WNW 02:04:30 28° NW 02:09:22 10° N
Cosmos 1953 4.2 02:07:08 27° NNW 02:07:08 27° NNW 02:09:12 10° N
SL-08 R/B 4.4 02:07:04 78° SW 02:07:27 82° W 02:13:58 10° N
Cosmos 1763 Rocket 3.8 02:14:49 55° E 02:14:49 55° E 02:19:18 10° NNE
Cosmos 1959 Rocket 4.5 02:15:00 62° W 02:15:07 62° WNW 02:21:12 10° N
Cosmos 1937 Rocket 4.0 02:14:37 10° NNW 02:18:47 52° NW 02:18:47 52° NW
Cosmos 332 Rocket 4.2 02:26:15 56° NW 02:26:15 56° NW 02:30:37 10° NNE
PSLV R/B 4.5 02:22:45 10° N 02:26:27 44° NW 02:26:27 44° NW
Cosmos 1743 Rocket 4.1 02:23:28 10° N 02:27:14 58° NNE 02:27:14 58° NNE
Cosmos 1943 Rocket 2.1 02:26:03 10° NNW 02:31:11 72° WNW 02:31:11 72° WNW
Cosmos 1125 Rocket 4.3 02:26:44 10° NNW 02:31:48 48° ENE 02:34:02 30° ESE
Cosmos 2151 3.7 02:28:42 10° N 02:32:22 51° NE 02:32:22 51° NE
SL-16 R/B 3.0 02:30:31 30° SE 02:33:31 58° ENE 02:39:36 10° N
Cosmos 468 Rocket 4.3 02:34:49 55° WNW 02:34:49 55° WNW 02:39:45 10° NNE
Cosmos 2218 Rocket 4.5 02:35:42 44° W 02:36:18 45° WNW 02:42:26 10° N
Cosmos 1821 Rocket 4.3 02:35:32 47° SE 02:37:07 61° E 02:43:14 10° NNE
Resurs 1-4 Rocket 3.2 02:32:18 10° NNE 02:37:08 36° E 02:38:22 32° SE
IRS-P3 4.1 02:32:25 10° NNE 02:37:47 73° ESE 02:38:11 69° SE
Cosmos 1656 Rocket 4.1 02:33:55 10° NNW 02:39:34 60° ENE 02:42:48 25° SE
Cosmos 1242 Rocket 4.0 02:41:23 35° NE 02:41:23 35° NE 02:43:45 10° NNE
Gblst 52 Del rocket 4.1 02:41:58 72° SW 02:42:33 82° SSE 02:48:13 10° ENE
BREEZE-M DEB (TANK) 3.6 02:44:12 33° E 02:44:12 33° E 02:47:06 10° E
Cosmos 2369 Rocket 3.2 02:38:03 10° NW 02:41:42 32° WNW 02:41:42 32° WNW
USA 229 DEB 4.1 02:38:34 10° NW 02:45:41 66° NE 02:52:56 10° SE
USA 229 4.1 02:38:40 10° NW 02:45:47 66° NE 02:53:01 10° SE
CZ-3A R/B 3.3 02:36:34 10° NW 02:47:22 71° SW 02:52:39 10° SE
CZ-2D R/B 2.9 02:42:23 10° NNE 02:47:32 43° E 02:48:56 36° SE
Cosmos 371 Rocket 3.9 02:48:53 44° WNW 02:48:53 44° WNW 02:53:26 10° N
Cosmos 1934 Rocket 4.2 02:50:06 41° SSE 02:52:02 61° E 02:58:01 10° NNE
AQUA 3.7 02:49:59 10° NNE 02:54:47 81° ESE 02:55:02 78° SSE
Cosmos 1814 Rocket 4.3 02:55:44 52° W 02:56:06 53° WNW 03:01:16 10° NNE
Cosmos 1943 3.6 02:56:08 46° W 02:56:59 50° WNW 03:02:31 10° NNE
USA 32 3.9 02:54:54 10° N 03:00:11 89° W 03:01:01 64° S
Cosmos 841 Rocket 3.4 03:01:51 66° WSW 03:02:20 72° WNW 03:07:33 10° NNE
Helios 1A Rocket 3.6 03:00:41 10° N 03:04:07 46° NW 03:04:07 46° NW
Lacrosse 5 3.6 03:02:53 10° NW 03:07:26 32° NNE 03:11:58 10° E
COBE Rocket 4.3 03:02:40 10° N 03:07:34 49° WNW 03:07:53 48° W
ARIANE 5 R/B 2.9 03:05:16 10° NNE 03:10:28 58° E 03:12:11 39° SSE
Cosmos 1500 Rocket 4.0 03:08:06 10° NNW 03:11:48 48° WNW 03:11:48 48° WNW
SL-08 R/B 3.9 03:15:58 41° WNW 03:15:58 41° WNW 03:19:55 10° NNW
BREEZE-M DEB (TANK) 4.1 03:13:14 37° WSW 03:15:46 85° NNW 03:38:21 10° ENE
Cosmos 1626 3.4 03:12:27 10° NNW 03:14:42 31° NW 03:14:42 31° NW
UNK 3.6 03:19:10 65° WSW 03:19:24 66° WSW 03:23:58 10° NNW
ADEOS Rocket 3.1 03:15:17 10° N 03:20:35 49° WNW 03:21:45 42° WSW
Cosmos 304 Rocket 3.8 03:20:35 57° WSW 03:21:11 63° WNW 03:25:57 10° NNE
Cosmos 1400 Rocket 2.8 03:19:02 10° N 03:22:59 76° E 03:23:32 62° SE
UNKNOWN OBJECT B 4.1 03:19:18 10° NNE 03:23:07 38° E 03:24:32 28° SE
MOZ.5/SAFIR/RUBIN 5/SL-8 4.0 03:22:13 26° SSE 03:24:48 67° ENE 03:29:28 10° N
ADEOS II 4.3 03:23:55 10° NE 03:27:42 20° E 03:31:28 10° SE
Cosmos 1726 3.4 03:29:16 28° SE 03:30:29 37° E 03:33:57 10° NNE
Cosmos 1703 4.4 03:31:00 10° NNW 03:33:37 30° WNW 03:33:37 30° WNW
IRS-1D 3.5 03:29:40 10° NNE 03:34:48 78° WNW 03:36:35 42° SSW
SL-27 R/B 4.0 03:34:30 23° SE 03:35:25 27° ESE 03:38:22 10° NE
Cosmos 1666 Rocket 3.9 03:34:18 10° N 03:38:42 64° E 03:41:52 19° SSE
Cosmos 1805 Rocket 3.4 03:36:15 10° N 03:40:43 82° W 03:42:20 39° S
Cosmos 2058 4.2 03:37:20 10° NNW 03:40:03 26° WNW 03:40:03 26° WNW
Cosmos 2221 2.5 03:41:01 52° SW 03:41:51 66° W 03:46:11 10° N
ADEOS 3.5 03:37:42 10° NNE 03:42:58 87° WNW 03:45:16 35° SSW
Spot 4 Rocket 4.1 03:38:10 10° N 03:43:18 65° WNW 03:45:08 39° SW
Cosmos 372 Rocket 4.2 03:44:36 10° NNW 03:49:31 45° WSW 03:51:00 36° SSW
COSMOS 2406 3.2 03:47:04 32° SSW 03:49:48 84° ESE 03:55:32 10° NNE
Cosmos 2285 Rocket 4.1 03:46:51 26° SSW 03:50:37 79° ESE 03:57:03 10° NNE
Cosmos 2098 Rocket 4.1 03:52:13 32° WSW 03:54:14 43° WNW 03:59:01 10° N
Okean O Rocket 4.1 03:54:04 10° NE 03:57:16 19° E 04:00:27 10° SE
Abrixas 3.2 03:59:00 36° SE 03:59:00 36° SE 04:00:43 10° ESE
Cosmos 540 Rocket 3.9 03:58:15 31° WSW 04:00:10 46° WNW 04:05:08 10° NNE
Cosmos 1908 3.9 04:03:42 34° W 04:04:15 36° WNW 04:07:49 10° N
Cosmos 482 Debris 3.4 04:04:11 57° NNW 04:04:27 65° NNE 04:07:26 10° ESE
MOS 1 Rocket 3.6 04:01:40 10° N 04:05:47 44° WNW 04:07:19 31° WSW
Cosmos 2173 Rocket 4.4 04:03:01 10° S 04:09:14 66° E 04:15:32 10° NNE
Cosmos 2278 4.5 04:06:38 10° NNW 04:12:13 55° ENE 04:17:45 10° SE
Meteor 2-17 Rocket 4.5 04:08:09 13° S 04:13:42 85° E 04:19:50 10° N
Cosmos 1300 2.6 04:12:33 25° S 04:14:42 88° W 04:18:34 10° N
Sich 1 3.2 04:10:47 10° NNW 04:15:04 53° W 04:17:46 21° SSW
BREEZE M DEB (TANK) 3.0 04:17:34 25° SSE 04:17:34 25° SSE 04:18:53 10° SE
Resurs 1-4 Rocket 2.9 04:12:14 10° N 04:16:56 34° WNW 04:19:26 22° WSW
SL-16 R/B 3.5 04:15:37 23° WSW 04:17:31 26° W 04:22:37 10° NW
CZ-2D R/B 3.5 04:15:15 10° N 04:19:13 58° WNW 04:21:16 26° SW
Cosmos 1697 Rocket 4.2 04:19:11 10° NNW 04:24:33 41° NE 04:29:52 10° SE
Cosmos 1315 Rocket 3.3 04:22:32 10° NNW 04:26:20 39° W 04:28:33 21° SSW
CZ-2D R/B 3.2 04:22:48 10° N 04:27:24 29° WNW 04:30:14 18° WSW
Cosmos 1470 Rocket 3.4 04:26:47 10° N 04:31:08 86° W 04:35:27 10° S
OPS 8737 4.4 04:29:27 25° SW 04:31:18 69° NW 04:34:39 10° NE
Cosmos 1455 4.0 04:28:07 10° SSE 04:31:26 31° E 04:34:47 10° NNE
Cosmos 1459 Rocket 3.9 04:26:00 10° S 04:32:08 85° W 04:38:14 10° N
ATLAS 2AS CENTAUR R/B 4.5 04:27:31 10° NW 04:35:04 40° NNE 04:42:14 10° ESE
Cosmos 1538 Rocket 4.0 04:30:39 14° SSW 04:35:16 85° WNW 04:40:40 10° NNE
Cosmos 2228 Rocket 3.0 04:31:12 11° S 04:35:31 84° W 04:40:00 10° N
USA 229 DEB 4.4 04:30:03 10° NW 04:36:17 33° WSW 04:42:36 10° S
USA 229 4.4 04:30:09 10° NW 04:36:24 33° WSW 04:42:43 10° S
NOSS 3-1 (A) 4.0 04:34:16 10° NW 04:41:49 74° SW 04:50:11 10° SSE
Cosmos 2082 Rocket 3.4 04:36:55 10° S 04:42:06 40° ESE 04:47:20 10° NE
Cosmos 1515 Rocket 3.5 04:38:14 10° S 04:42:36 85° W 04:47:04 10° N
Cosmos 1633 Rocket 3.8 04:39:28 10° NNW 04:43:23 33° W 04:46:49 12° SSW
PSLV R/B 4.2 04:42:54 21° SW 04:44:16 29° S 04:47:09 10° SE
Meteor 2-3 Rocket 3.8 04:39:05 10° N 04:44:45 86° E 04:50:27 10° S
PSLV R/B 4.0 04:41:48 10° NNE 04:45:58 80° ESE 04:50:06 10° S
USA 161 1.8 04:47:07 24° W 04:47:07 24° W 04:48:44 10° NW
Tiangong 2 3.6 04:47:10 10° S 04:48:46 13° SSE 04:50:22 10° ESE
ARIANE 5 R/B 4.0 04:45:11 10° NNW 04:49:11 22° WNW 04:52:31 13° WSW
Cosmos 292 Rocket 4.4 04:46:24 16° SW 04:49:53 40° WNW 04:54:26 10° N
Lacrosse 5 1.9 04:45:50 10° NW 04:50:56 90° WSW 04:56:01 10° SE
Cosmos 2061 Rocket 4.1 04:45:08 10° SSW 04:51:33 70° W 04:57:59 10° N
CZ-4B R/B 3.2 04:50:32 10° NNE 04:54:59 87° E 04:59:32 10° SSW
CZ-4B R/B 3.7 04:50:38 10° NNE 04:56:06 61° ESE 05:01:26 10° S
UNKNOWN OBJECT B 4.4 04:54:17 10° NNW 04:57:23 21° WNW 05:00:01 12° WSW
Cosmos 1680 Rocket 4.1 04:57:59 10° S 05:03:12 62° ESE 05:08:27 10° NNE
PAYLOAD B 4.4 04:57:53 10° NNE 05:03:32 79° ESE 05:09:07 10° SSW
CZ-2C R/B 4.1 05:00:42 10° SSE 05:05:05 66° ENE 05:09:32 10° N
Cosmos 1726 3.9 05:03:54 11° WSW 05:05:59 16° WNW 05:08:24 10° NNW
Cosmos 2369 3.7 05:00:57 10° NNW 05:06:31 59° WSW 05:12:02 10° S
ADEOS II 2.2 05:02:39 10° N 05:07:51 61° WNW 05:13:00 10° SSW
Cosmos 1328 Rocket 4.4 05:05:26 10° SW 05:09:20 33° WNW 05:13:17 10° N
Cosmos 1892 2.9 05:05:41 10° NNW 05:09:24 49° W 05:13:06 10° S
SL-27 R/B 4.0 05:08:12 11° WSW 05:10:40 20° WNW 05:13:18 10° N
NOSS 3-1 (C) 4.4 05:04:15 10° NW 05:11:18 42° WSW 05:19:00 10° S
Cosmos 2016 Rocket 4.0 05:05:34 10° SSW 05:11:37 61° WNW 05:17:40 10° N
Meteor 1-27 4.2 05:07:17 10° SSW 05:12:56 70° WNW 05:18:33 10° N
Landsat 4 3.6 05:09:50 10° S 05:13:32 66° WSW 05:17:17 10° NNW
PSLV R/B 3.6 05:11:33 10° N 05:15:52 63° WNW 05:20:07 10° SSW
Shenzhou-11 Module 3.8 05:15:21 10° SSW 05:17:50 22° SSE 05:20:21 10° ESE
Cosmos 1656 3.8 05:15:32 10° NNW 05:21:09 59° WSW 05:26:43 10° S
Cosmos 1725 Rocket 4.0 05:18:05 10° SSW 05:24:14 69° W 05:30:25 10° N
Cosmos 1825 2.7 05:21:00 10° N 05:24:47 64° E 05:28:34 10° SSE
Cosmos 2056 Rocket 4.4 05:20:10 10° NNW 05:25:28 59° ENE 05:30:49 10° SE
